{"data":{"norad_id":66608,"intl_designator":"2025-270W","name":"STARLINK-36036","alt_names":[],"object_type":"PAYLOAD","status":"ACTIVE","operator":null,"country":"US","launch_date":"2025-11-22","launch_site_code":"AFETR","launch_vehicle":null,"mission":null,"orbit_class":"UNKNOWN","rcs_meters":null,"size_class":null,"mass_kg":null,"dimensions":null,"purposes":["comms"],"wikipedia_slug":null,"has_3d_model":false,"image_url":null,"decayed_at":null,"tle_current":{"epoch":"2026-05-24T23:07:39.862848Z","epoch_age_seconds":78523,"freshness":"FRESH","line1":"1 66608U 25270W   26144.96365582  .00016613  00000+0  61153-3 0  9998","line2":"2 66608  43.0014 345.1897 0001755 272.6455  87.4195 15.27598568 29210","mean_motion":15.27598568,"eccentricity":0.0001755,"inclination_deg":43.0014,"raan_deg":345.1897,"arg_perigee_deg":272.6455,"mean_anomaly_deg":87.4195,"bstar":0.00061153,"rev_number":2921,"period_min":94.265602898889,"perigee_km":481.78936892874,"apogee_km":484.19762573331,"semimajor_km":6861.130497331,"source":"CELESTRAK","updated_at":"2026-05-25T13:38:21.291605Z"}}}